Location: Gu�tanj
(46.5431°N, 14.9692°E)
Time: 17:37:02
(UTC+00:00)

X-37B - Pass Details

Date: 04 October 2021
Orbit: 385 x 389 km, 45.0° (Epoch: 17 October)

Event Time Altitude Azimuth Distance (km) Brightness Sun altitude
Exits shadow 03:02:05 16° 152° (SSE) 1,119 3.0 -21.3°
Drops below altitude 10° 03:02:56 10° 142° (SE) 1,408 3.6 -21.2°
Sets 03:05:09 0° 130° (SE) 2,261 4.9 -20.8°
